Flag for United Kingdom Weather past 2 weeks in Portsmouth, England, United Kingdom

Now
54 °F

Passing clouds.


Feels Like: 49 °F
Forecast: 49 / 58 °F
Wind: 17 mph from Northwest

Location: Southampton / Weather Centre

Current Time: Oct 21, 2014 at 10:01:59 AM

Latest Report: Oct 21, 2014 at 9:20 AM


Visibility: N/A

Pressure: 29.65 "Hg

Humidity: 72%

Dew point: 45 °F

Location of PortsmouthLocation

Historic Weather in Portsmouth — Graph

°F

Portsmouth temperature yesterday

Maximum temperature yesterday: 59 °F (at 12:20 PM)
Minimum temperature yesterday: 52 °F (at 5:50 AM)
Average temperature yesterday: 56 °F

Past Weeks' High & Low Weather Summary

 TemperatureHumidityPressure
High64 °F (Oct 18, 5:50 AM)100% (Oct 6, 11:20 AM)30.07 "Hg (Oct 6, 11:20 AM)
Low39 °F (Oct 12, 6:50 AM)55% (Oct 7, 11:50 AM)29.33 "Hg (Oct 8, 3:20 PM)
Average56 °F85%29.70 "Hg
* Reported Oct 6 8:20 AM — Oct 21 8:50 AM, Portsmouth, Weather by CustomWeather, © 2014

Note: Actual official high and low records may vary slightly from our data, if they occured in-between our weather recording intervals... More about our weather records

Advertising

Portsmouth weather history for previous 24 hours

 ConditionsComfort  
Time TempWeatherWind HumidityBarometerVisibility
8:50 AM
Oct 21
55 °FSprinkles. Scattered clouds.13 mph88%29.65 "Hg4 mi
8:20 AM57 °FPassing clouds.13 mph82%29.62 "HgN/A
7:50 AM57 °FPassing clouds.15 mph82%29.62 "HgN/A
7:20 AM57 °FSprinkles. Partly cloudy.18 mph88%29.62 "Hg5 mi
6:50 AM57 °FPartly cloudy.16 mph88%29.65 "HgN/A
6:20 AM55 °FPassing clouds.16 mph94%29.65 "HgN/A
5:50 AM55 °FPassing clouds.15 mph94%29.65 "HgN/A
10:20 PM
Oct 20
55 °FPassing clouds.10 mph82%29.92 "HgN/A
9:50 PM55 °FPassing clouds.10 mph82%29.95 "HgN/A
9:20 PM55 °FPassing clouds.8 mph82%29.95 "HgN/A
8:50 PM55 °FPassing clouds.9 mph82%29.95 "HgN/A
8:20 PM55 °FPassing clouds.10 mph82%29.95 "HgN/A
7:50 PM55 °FPassing clouds.10 mph82%29.98 "HgN/A
7:20 PM55 °FPassing clouds.9 mph82%29.98 "HgN/A
6:50 PM55 °FScattered clouds.8 mph82%29.98 "HgN/A
6:20 PM55 °FScattered clouds.8 mph82%29.98 "HgN/A
5:50 PM55 °FScattered showers. Scattered clouds.10 mph77%29.98 "HgN/A
5:20 PM55 °FScattered showers. Scattered clouds.12 mph77%29.98 "HgN/A
4:50 PM57 °FScattered showers. Scattered clouds.13 mph77%29.98 "HgN/A
4:20 PM59 °FScattered showers. Scattered clouds.12 mph72%29.98 "HgN/A
3:50 PM59 °FScattered clouds.9 mph68%30.01 "HgN/A
3:20 PM59 °FScattered showers. Scattered clouds.12 mph68%30.01 "HgN/A
2:50 PM57 °FScattered showers. Scattered clouds.9 mph82%30.01 "HgN/A
2:20 PM57 °FSprinkles. Scattered clouds.12 mph72%30.01 "HgN/A
1:50 PM59 °FScattered showers. Scattered clouds.13 mph63%30.04 "HgN/A
1:20 PM59 °FScattered clouds.7 mph63%30.04 "HgN/A
12:50 PM59 °FScattered clouds.12 mph63%30.04 "HgN/A
12:20 PM59 °FScattered clouds.13 mph72%30.07 "HgN/A
11:50 AM57 °FScattered clouds.10 mph77%30.07 "HgN/A
11:20 AM57 °FPassing clouds.10 mph77%30.07 "HgN/A
10:50 AM57 °FScattered clouds.10 mph82%30.07 "HgN/A
10:20 AM55 °FPartly sunny.8 mph88%30.07 "HgN/A
Weather by CustomWeather, © 2014

See weather overviewHow to use our weather pages